This is the latest recevied weather packets stored in our database for station/object SP1BMW-13. If no packets are shown the sender has not sent any weather packets the latest 10 day(s).
| Time | Temp. | Humidity | Pressure | Rain* | Wind** | Luminosity | Snow |
|---|---|---|---|---|---|---|---|
| 1787960119 | 20° C | 86% | 1007.6 hPa | 0 mm | 0 m/s | 0 W/m² | - |
| 1787960059 | 20° C | 86% | 1007.5 hPa | 0 mm | 0 m/s | 0 W/m² | - |
| 1787959999 | 20° C | 86% | 1007.6 hPa | 0 mm | 0 m/s | 0 W/m² | - |
| 1787959939 | 20° C | 86% | 1007.6 hPa | 0 mm | 0.45 m/s, 149° | 0 W/m² | - |
| 1787959879 | 20° C | 86% | 1007.6 hPa | 0 mm | 0.45 m/s, 259° | 0 W/m² | - |
| 1787959819 | 20° C | 86% | 1007.4 hPa | 0 mm | 0 m/s | 0 W/m² | - |
| 1787959759 | 20° C | 86% | 1007.6 hPa | 0 mm | 0 m/s | 0 W/m² | - |
| 1787959699 | 20° C | 86% | 1007.5 hPa | 0 mm | 0.45 m/s, 271° | 0 W/m² | - |
| 1787959639 | 20° C | 86% | 1007.6 hPa | 0 mm | 0.45 m/s, 298° | 0 W/m² | - |
| 1787959579 | 20° C | 86% | 1007.6 hPa | 0 mm | 0.45 m/s, 214° | 0 W/m² | - |
| 1787959520 | 20° C | 86% | 1007.6 hPa | 0 mm | 0.45 m/s, 189° | 0 W/m² | - |
| 1787959459 | 20° C | 86% | 1007.5 hPa | 0 mm | 0 m/s | 0 W/m² | - |
| 1787959399 | 20° C | 86% | 1007.5 hPa | 0 mm | 0 m/s | 0 W/m² | - |
| 1787959339 | 20° C | 86% | 1007.4 hPa | 0 mm | 0.45 m/s, 204° | 0 W/m² | - |
| 1787959279 | 20° C | 86% | 1007.4 hPa | 0 mm | 0 m/s | 0 W/m² | - |
| 1787959219 | 20° C | 86% | 1007.6 hPa | 0 mm | 0 m/s | 0 W/m² | - |
| 1787959159 | 20° C | 86% | 1007.5 hPa | 0 mm | 0.45 m/s, 308° | 0 W/m² | - |
| 1787959099 | 20° C | 86% | 1007.5 hPa | 0 mm | 0.45 m/s, 35° | 0 W/m² | - |
| 1787959039 | 20° C | 86% | 1007.6 hPa | 0 mm | 0.45 m/s, 359° | 0 W/m² | - |
| 1787958980 | 20° C | 86% | 1007.7 hPa | 0 mm | 0.89 m/s, 346° | 0 W/m² | - |
| 1787958919 | 20° C | 86% | 1007.6 hPa | 0 mm | 0.45 m/s, 278° | 0 W/m² | - |
| 1787958859 | 20° C | 86% | 1007.6 hPa | 0 mm | 0.45 m/s, 318° | 0 W/m² | - |
| 1787958800 | 20° C | 86% | 1007.7 hPa | 0 mm | 0.45 m/s, 122° | 0 W/m² | - |
| 1787958739 | 20° C | 86% | 1007.8 hPa | 0 mm | 0.45 m/s, 139° | 0 W/m² | - |
| 1787958679 | 20° C | 86% | 1007.7 hPa | 0 mm | 0.89 m/s, 239° | 0 W/m² | - |
* Rain latest hour (hover to see other rain measurements)
** Current wind speed in m/s (hover to see current wind gust speed)